Location: Feydey
(46.3431°N, 7.0106°E)
Time: 22:33:55
(UTC+00:00)

COBE Rocket - Pass Details

Date: 20 June 2021
Orbit: 679 x 782 km, 97.1° (Epoch: 23 July)

Event Time Altitude Azimuth Distance (km) Brightness Sun altitude
Exits shadow 22:22:09 31° 137° (SE) 1,293 4.7 -18.4°
Maximum altitude 22:24:21 56° 73° (ENE) 881 4.3 -18.5°
Drops below altitude 10° 22:29:09 10° 356° (N) 2,236 7.6 -18.7°
Sets 22:31:26 0° 352° (N) 3,145 8.8 -18.8°
